[[{"header":{"parameterUnit":"m.s-1","parameterCategory":1,"la1":30.2991,"la2":30.254,"lo1":-89.0895,"lo2":-89.0444,"dy":0.0017,"dx":0.0017,"nx":28,"ny":28,"refTime":"2023-09-29T03:00:00:Z","depth":0,"parameterNumber":2,"parameterNumberName":"U-component_of_WINDS"},"data":[0,0,0,0,0,0,0,0,0,0,0,0,0,0,0,0,0,0,0,0,0,0,0,0,0,0,0,0,0,0,0,0,0,0,0,0,0,0,0,0,0,0,0,0,0,0,0,0,0,0,0,0,0,0,0,0,0,0,-3.5021,-3.5021,0,-3.5,-3.5,-3.5,-3.4932,-3.4931,-3.4929,-3.4928,-3.4909,-3.491,-3.4911,0,0,0,0,0,0,0,0,0,0,0,0,0,-3.5006,-3.5006,-3.5021,-3.5021,-3.5021,-3.5,-3.5,-3.5,-3.4933,-3.4931,-3.4929,-3.4927,-3.4909,-3.491,-3.4911,0,0,0,0,0,0,0,0,0,0,0,0,0,-3.5001,-3.5006,-3.5021,-3.4985,-3.4981,-3.5,-3.5,-3.5,-3.4933,-3.4931,-3.4929,-3.4926,-3.4908,-3.491,-3.4911,-3.4965,0,0,-3.4915,-3.4916,0,0,0,0,0,0,0,0,-3.5002,-3.5002,-3.499,-3.4987,-3.4983,-3.4967,-3.4988,-3.4988,-3.4934,-3.4951,-3.4928,-3.4925,-3.493,-3.493,-3.4931,-3.4964,-3.4963,-3.4915,-3.4916,-3.4917,-3.4917,0,0,0,0,0,0,0,-3.5002,-3.5003,-3.5013,-3.499,-3.4986,-3.497,-3.4967,-3.4987,-3.4954,-3.495,-3.4945,-3.4943,-3.4928,-3.493,-3.493,-3.4963,-3.4915,-3.4916,-3.4917,-3.4918,-3.5041,-3.5044,0,0,0,0,0,0,-3.5007,-3.5003,-3.5014,-3.5012,-3.4987,-3.4972,-3.4969,-3.4974,-3.4953,-3.4948,-3.4945,-3.494,-3.4928,-3.4928,-3.4929,-3.4992,-3.4917,-3.4918,-3.4919,-3.5039,-3.5042,-3.5045,0,0,0,0,0,0,-3.5007,-3.5009,-3.5014,-3.5006,-3.5006,-3.4975,-3.4982,-3.4975,-3.4977,-3.495,-3.4944,-3.4953,-3.4927,-3.4927,-3.4957,-3.499,-3.4918,-3.492,-3.5036,-3.504,-3.5043,-3.5118,0,0,0,0,0,0,-3.5007,-3.5009,-3.5028,-3.5007,-3.5007,-3.5042,-3.4984,-3.4976,-3.4979,-3.4972,-3.4956,-3.4951,-3.4925,-3.4955,-3.4958,-3.4991,-3.4921,-3.5033,-3.5038,-3.5042,-3.5113,-3.5124,-3.5134,0,0,0,0,0,-3.5007,-3.505,-3.503,-3.5031,-3.503,-3.5044,-3.5044,-3.5012,-3.4982,-3.5002,-3.4985,-3.4951,-3.4986,-3.4959,-3.4961,-3.4995,-3.5031,-3.5036,-3.5042,-3.5108,-3.5122,-3.5133,0,0,0,0,0,0,-3.5076,-3.5047,-3.5024,-3.5061,-3.5056,-3.5032,-3.5056,-3.5028,-3.5031,-3.5025,-3.4986,-3.4983,-3.5019,-3.501,-3.498,-3.5047,-3.5003,-3.5009,-3.5052,-3.5065,-3.5076,-3.5078,-3.4922,0,0,0,0,0,-3.5096,-3.5109,-3.5083,-3.5119,-3.5117,-3.5087,-3.5092,-3.5069,-3.5062,-3.5059,-3.5044,-3.5039,-3.5049,-3.5056,-3.5064,-3.5111,-3.5107,-3.5136,-3.5146,-3.5155,-3.5161,-3.5188,-3.5201,-3.5063,-3.5063,-3.5063,0,0,-3.5137,-3.5122,-3.5133,-3.5132,-3.5125,-3.5141,-3.5086,-3.5104,-3.5116,-3.5062,-3.5089,-3.5079,-3.507,-3.511,-3.5126,-3.5103,-3.5199,-3.5162,-3.5169,-3.5171,-3.5195,-3.5208,-3.522,-3.5067,-3.5066,-3.5065,0,0,-3.522,-3.5209,-3.5239,-3.5233,-3.5223,-3.5203,-3.5211,-3.5192,-3.5183,-3.521,-3.517,-3.5184,-3.5201,-3.5198,-3.5199,-3.5282,-3.5253,-3.5286,-3.5342,-3.5368,-3.5379,-3.5389,-3.5421,-3.5432,-3.5292,-3.5292,-3.5292,0,-3.5272,-3.5293,-3.5258,-3.528,-3.5282,-3.5233,-3.5264,-3.526,-3.5254,-3.5257,-3.5231,-3.5253,-3.5244,-3.5283,-3.5304,-3.5305,-3.5314,-3.5288,-3.538,-3.5389,-3.5398,-3.5428,-3.544,-3.5297,-3.5296,-3.5296,-3.5295,0,-3.5359,-3.5374,-3.54,-3.5395,-3.5399,-3.5425,-3.5396,-3.5405,-3.5382,-3.5365,-3.5395,-3.5382,-3.5388,-3.5395,-3.5372,-3.5431,-3.5418,-3.5387,-3.5341,-3.5416,-3.5444,-3.5455,-3.5303,-3.5301,-3.53,-3.5299,0,0,-3.5485,-3.5461,-3.5471,-3.5469,-3.5455,-3.5467,-3.5492,-3.5496,-3.5506,-3.5503,-3.5525,-3.5541,-3.5513,-3.5514,-3.549,-3.5513,-3.5583,-3.5479,-3.5479,-3.5501,-3.5651,-3.5676,-3.5689,-3.5563,-3.5565,-3.5567,-3.5652,0,-3.5565,-3.5605,-3.5575,-3.5622,-3.5637,-3.5592,-3.5614,-3.5609,-3.5595,-3.5606,-3.5591,-3.5604,-3.5564,-3.5565,-3.5586,-3.557,-3.5613,-3.5564,-3.5584,-3.5585,-3.5589,-3.5704,-3.5729,-3.5811,-3.5663,-3.5664,-3.5666,0,-3.5663,-3.5666,-3.5714,-3.5698,-3.5704,-3.5724,-3.5727,-3.5738,-3.5732,-3.572,-3.5722,-3.5693,-3.5718,-3.5673,-3.5709,-3.5676,-3.5682,-3.5677,-3.5679,-3.5681,-3.5631,-3.5711,-3.5836,-3.5849,-3.5682,-3.5681,-3.568,0,-3.5753,-3.5768,-3.5799,-3.5798,-3.5781,-3.5796,-3.579,-3.5781,-3.5787,-3.579,-3.5794,-3.58,-3.5804,-3.581,-3.5785,-3.5754,-3.5824,-3.5776,-3.5817,-3.5818,-3.5835,-3.5834,-3.5965,-3.5837,-3.5836,-3.5836,-3.5836,0,-3.5847,-3.5878,-3.5839,-3.5859,-3.5893,-3.5859,-3.5895,-3.5884,-3.5877,-3.5895,-3.5856,-3.5874,-3.5838,-3.5853,-3.5833,-3.5867,-3.5868,-3.5861,-3.5855,-3.5865,-3.5867,-3.587,-3.5865,-3.5839,-3.5839,-3.5838,-3.5837,0,-3.5953,-3.5927,-3.5959,-3.594,-3.5936,-3.5963,-3.5948,-3.5966,-3.5949,-3.5972,-3.5976,-3.595,-3.5965,-3.594,-3.5952,-3.5939,-3.5987,-3.5972,-3.5989,-3.5985,-3.6028,-3.6025,-3.6167,-3.6185,-3.6043,-3.6045,-3.6046,0,-3.6015,-3.6038,-3.6022,-3.6031,-3.6027,-3.6042,-3.6047,-3.6015,-3.6023,-3.6019,-3.6038,-3.605,-3.6058,-3.6085,-3.6069,-3.6079,-3.6065,-3.6114,-3.6066,-3.6076,-3.6068,-3.6068,-3.6071,-3.6124,-3.6126,-3.6127,-3.6128,0,-3.6128,-3.6115,-3.6124,-3.6131,-3.6139,-3.6142,-3.6142,-3.6152,-3.6118,-3.6129,-3.6144,-3.6151,-3.6164,-3.6177,-3.6183,-3.6178,-3.6149,-3.6143,-3.6154,-3.6165,-3.6175,-3.6172,-3.6018,-3.614,-3.6139,-3.6138,-3.6138,-3.6137,-3.6216,-3.6235,-3.6228,-3.624,-3.6237,-3.6239,-3.6256,-3.6242,-3.6253,-3.6261,-3.6242,-3.6262,-3.6258,-3.6263,-3.6261,-3.6278,-3.6256,-3.6271,-3.6275,-3.6279,-3.6287,-3.6171,-3.6278,-3.6278,-3.6277,-3.6277,-3.6277,0,-3.6329,-3.6322,-3.6334,-3.6336,-3.6347,-3.6317,-3.6317,-3.6328,-3.6346,-3.6344,-3.6353,-3.6372,-3.6385,-3.637,-3.6381,-3.6397,-3.6384,-3.6401,-3.6401,-3.6401,-3.6304,-3.6295,-3.6412,-3.6412,-3.6412,-3.6412,-3.6412,-3.6412,-3.6389,-3.6422,-3.6408,-3.644,-3.6432,-3.6452,-3.6455,-3.6457,-3.6455,-3.6478,-3.6488,-3.6478,-3.6472,-3.6482,-3.6494,-3.6489,-3.6496,-3.6518,-3.651,-3.642,-3.6407,-3.6394,-3.6386,-3.652,-3.652,-3.6605,-3.6605,-3.6606]},{"header":{"parameterUnit":"m.s-1","parameterCategory":1,"la1":30.2991,"la2":30.254,"lo1":-89.0895,"lo2":-89.0444,"dy":0.0017,"dx":0.0017,"nx":28,"ny":28,"refTime":"2023-09-29T03:00:00:Z","depth":0,"parameterNumber":3,"parameterNumberName":"V-component_of_WINDS"},"data":[0,0,0,0,0,0,0,0,0,0,0,0,0,0,0,0,0,0,0,0,0,0,0,0,0,0,0,0,0,0,0,0,0,0,0,0,0,0,0,0,0,0,0,0,0,0,0,0,0,0,0,0,0,0,0,0,0,0,-1.1972,-1.1972,0,-1.2006,-1.2006,-1.2007,-1.2,-1.2,-1.1999,-1.1998,-1.2036,-1.2037,-1.2039,0,0,0,0,0,0,0,0,0,0,0,0,0,-1.1903,-1.1904,-1.1972,-1.1972,-1.1972,-1.2006,-1.2006,-1.2007,-1.2,-1.2,-1.1999,-1.1998,-1.2035,-1.2037,-1.2039,0,0,0,0,0,0,0,0,0,0,0,0,0,-1.1934,-1.1904,-1.1972,-1.1973,-1.1974,-1.2006,-1.2006,-1.2007,-1.2001,-1.2,-1.1999,-1.1998,-1.2034,-1.2037,-1.2039,-1.2072,0,0,-1.2046,-1.2047,0,0,0,0,0,0,0,0,-1.1933,-1.1937,-1.1973,-1.1973,-1.1974,-1.1998,-1.1996,-1.2029,-1.2001,-1.199,-1.1998,-1.1997,-1.2024,-1.2027,-1.2036,-1.2074,-1.2075,-1.2046,-1.2048,-1.2049,-1.2049,0,0,0,0,0,0,0,-1.193,-1.1935,-1.1985,-1.1973,-1.1974,-1.1973,-1.1976,-1.2002,-1.2012,-1.1991,-1.1991,-1.1995,-1.2024,-1.2033,-1.2036,-1.2076,-1.2046,-1.2048,-1.205,-1.2051,-1.2145,-1.2146,0,0,0,0,0,0,-1.1927,-1.1934,-1.1984,-1.1986,-1.195,-1.1975,-1.1979,-1.1991,-1.2012,-1.2014,-1.1996,-1.1994,-1.203,-1.2034,-1.2038,-1.208,-1.2049,-1.2051,-1.2052,-1.2144,-1.2146,-1.2147,0,0,0,0,0,0,-1.1926,-1.1932,-1.1983,-1.196,-1.1966,-1.1977,-1.1991,-1.1992,-1.2002,-1.2015,-1.2017,-1.2003,-1.2029,-1.2034,-1.2064,-1.2081,-1.2052,-1.2054,-1.2143,-1.2145,-1.2146,-1.2163,0,0,0,0,0,0,-1.1924,-1.1931,-1.1944,-1.196,-1.1968,-1.2008,-1.1992,-1.1994,-1.2005,-1.2004,-1.2023,-1.2025,-1.2029,-1.206,-1.2066,-1.2084,-1.2056,-1.2141,-1.2144,-1.2146,-1.2161,-1.2165,-1.2169,0,0,0,0,0,-1.1922,-1.1947,-1.1944,-1.195,-1.1983,-1.2009,-1.2013,-1.2017,-1.2007,-1.202,-1.2028,-1.2024,-1.2077,-1.2064,-1.207,-1.2088,-1.214,-1.2143,-1.2145,-1.216,-1.2164,-1.2168,0,0,0,0,0,0,-1.1933,-1.1949,-1.1946,-1.1978,-1.1992,-1.2008,-1.2024,-1.2022,-1.2039,-1.2038,-1.2042,-1.2046,-1.2076,-1.2085,-1.2069,-1.2122,-1.2108,-1.2112,-1.2116,-1.2121,-1.2125,-1.2123,-1.2058,0,0,0,0,0,-1.1939,-1.1958,-1.1971,-1.1998,-1.2005,-1.2013,-1.2025,-1.2026,-1.2041,-1.2047,-1.2058,-1.2074,-1.2094,-1.2108,-1.2127,-1.2161,-1.2167,-1.2177,-1.2181,-1.2184,-1.2188,-1.2209,-1.2215,-1.2155,-1.2155,-1.2155,0,0,-1.1952,-1.1963,-1.1975,-1.2,-1.2012,-1.2033,-1.2019,-1.2041,-1.2057,-1.2051,-1.208,-1.2089,-1.2106,-1.2139,-1.2154,-1.2147,-1.2205,-1.2187,-1.2189,-1.2192,-1.2212,-1.2218,-1.2223,-1.2157,-1.2156,-1.2156,0,0,-1.1987,-1.1996,-1.202,-1.2032,-1.2049,-1.2054,-1.206,-1.2076,-1.2081,-1.211,-1.2107,-1.2126,-1.216,-1.2174,-1.2185,-1.2225,-1.2222,-1.2231,-1.2251,-1.2272,-1.2276,-1.2281,-1.2298,-1.2303,-1.2234,-1.2234,-1.2234,0,-1.2001,-1.2032,-1.2033,-1.2056,-1.2068,-1.2063,-1.2089,-1.21,-1.2122,-1.2131,-1.2123,-1.2167,-1.2178,-1.2215,-1.2225,-1.2233,-1.2241,-1.223,-1.2275,-1.228,-1.2284,-1.23,-1.2306,-1.2235,-1.2235,-1.2235,-1.2235,0,-1.205,-1.2071,-1.2089,-1.2111,-1.2124,-1.2148,-1.2154,-1.2168,-1.2168,-1.2175,-1.2205,-1.2218,-1.2241,-1.2249,-1.2249,-1.2287,-1.2282,-1.2274,-1.226,-1.2291,-1.2306,-1.2312,-1.2237,-1.2237,-1.2236,-1.2236,0,0,-1.2094,-1.2117,-1.2123,-1.2134,-1.2152,-1.2169,-1.2193,-1.2215,-1.2228,-1.2243,-1.2265,-1.2294,-1.2287,-1.23,-1.2301,-1.2319,-1.2353,-1.2309,-1.231,-1.2319,-1.2397,-1.2405,-1.2412,-1.235,-1.2351,-1.2352,-1.2397,0,-1.2133,-1.2176,-1.2178,-1.2217,-1.2238,-1.2233,-1.2254,-1.2268,-1.2275,-1.2294,-1.2301,-1.2323,-1.2311,-1.2319,-1.2336,-1.2345,-1.2369,-1.2341,-1.2373,-1.2374,-1.2371,-1.242,-1.2428,-1.247,-1.2403,-1.2404,-1.2404,0,-1.2184,-1.2202,-1.2243,-1.2259,-1.2268,-1.2287,-1.2308,-1.2326,-1.2342,-1.2346,-1.236,-1.2359,-1.2385,-1.2367,-1.2404,-1.2386,-1.2398,-1.2405,-1.2406,-1.2412,-1.2393,-1.243,-1.2483,-1.2491,-1.2413,-1.2413,-1.2412,0,-1.2216,-1.225,-1.2279,-1.2288,-1.2307,-1.2321,-1.233,-1.2345,-1.2358,-1.2376,-1.2385,-1.2406,-1.2418,-1.2435,-1.244,-1.2426,-1.2477,-1.246,-1.2483,-1.2483,-1.2497,-1.2496,-1.2556,-1.2499,-1.2499,-1.2499,-1.2499,0,-1.2261,-1.2287,-1.2294,-1.2313,-1.2342,-1.2344,-1.2373,-1.2381,-1.2395,-1.2416,-1.2411,-1.2431,-1.2435,-1.2456,-1.246,-1.2492,-1.2496,-1.2501,-1.2503,-1.2504,-1.2503,-1.2514,-1.2513,-1.2501,-1.2501,-1.25,-1.25,0,-1.2303,-1.2308,-1.2341,-1.2356,-1.2361,-1.2382,-1.2396,-1.2414,-1.2419,-1.2446,-1.2452,-1.2461,-1.2486,-1.2492,-1.252,-1.2523,-1.2561,-1.2558,-1.2556,-1.2557,-1.2581,-1.258,-1.2652,-1.2663,-1.2596,-1.2597,-1.2598,0,-1.2333,-1.2353,-1.2371,-1.2384,-1.2394,-1.2415,-1.2429,-1.2431,-1.2446,-1.2466,-1.2482,-1.2506,-1.2526,-1.2565,-1.2575,-1.2597,-1.2597,-1.262,-1.26,-1.2601,-1.2601,-1.2601,-1.2604,-1.2625,-1.2626,-1.2627,-1.2627,0,-1.2386,-1.2388,-1.2408,-1.2429,-1.2445,-1.2462,-1.2478,-1.2489,-1.2494,-1.251,-1.2535,-1.255,-1.258,-1.2604,-1.2627,-1.2637,-1.2634,-1.2633,-1.264,-1.2643,-1.2642,-1.2646,-1.257,-1.2632,-1.2631,-1.2631,-1.2631,-1.2631,-1.2425,-1.2444,-1.246,-1.2482,-1.2494,-1.2509,-1.2528,-1.2536,-1.2556,-1.2581,-1.258,-1.2608,-1.2624,-1.2654,-1.2665,-1.2688,-1.2681,-1.269,-1.2693,-1.2696,-1.27,-1.2636,-1.2691,-1.2691,-1.2691,-1.2691,-1.2691,0,-1.2481,-1.2491,-1.2511,-1.2534,-1.2552,-1.2546,-1.2563,-1.2579,-1.2603,-1.2618,-1.2638,-1.2667,-1.269,-1.2702,-1.2726,-1.2742,-1.2741,-1.2748,-1.2749,-1.2752,-1.2703,-1.2696,-1.2748,-1.2748,-1.2748,-1.2748,-1.2748,-1.2748,-1.2513,-1.2545,-1.2548,-1.2586,-1.2595,-1.2623,-1.2633,-1.2648,-1.266,-1.2693,-1.2713,-1.2719,-1.2734,-1.2758,-1.278,-1.2783,-1.2793,-1.2802,-1.2805,-1.276,-1.2755,-1.2749,-1.2743,-1.2803,-1.2804,-1.2851,-1.2852,-1.2852]}]]